DW0051 Weather Reports


time (UTC)temp
C
wind
direction
speed
KPH
gust
KPH
rain 1hr
cm
rain 24hr
cm
rain mn
cm
humidity
%
barometer
mb
20190425054315 12 0.0 0.0 0.00 0.00 0.00 83 1013.1
20190425053315 11 0.0 0.0 0.00 0.00 0.00 84 1013.0
20190425052315 10 0.0 0.0 0.00 0.00 0.00 85 1012.9
20190425051315 10 0.0 0.0 0.00 0.00 0.00 85 1012.7
20190425050315 9 0.0 0.0 0.00 0.00 0.00 85 1012.6
20190425045315 8 0.0 0.0 0.00 0.00 0.00 85 1012.4
20190425044315 8 0.0 0.0 0.00 0.00 0.00 85 1012.3
20190425043315 8 0.0 0.0 0.00 0.00 0.00 85 1012.1
20190425042315 8 0.0 0.0 0.00 0.00 0.00 85 1011.9
20190425041315 9 0.0 0.0 0.00 0.00 0.00 85 1011.8
20190425040315 9 0.0 0.0 0.00 0.00 0.00 84 1011.7
20190425035316 9 0.0 0.0 0.00 0.00 0.00 84 1011.5
20190425034315 9 0.0 0.0 0.00 0.00 0.00 84 1011.4
20190425033315 10 0.0 0.0 0.00 0.00 0.00 84 1011.2
20190425032315 10 0.0 0.0 0.00 0.00 0.00 83 1011.1
20190425031315 10 0.0 0.0 0.00 0.00 0.00 83 1010.9
20190425030317 10 0.0 0.0 0.00 0.00 0.00 83 1010.9
20190425025317 10 0.0 0.0 0.00 0.00 0.00 83 1010.7
20190425024317 10 0.0 0.0 0.00 0.00 0.00 83 1010.8
20190425023317 10 0.0 0.0 0.00 0.00 0.00 82 1010.8
20190425022316 10 0.0 0.0 0.00 0.00 0.00 82 1010.8
20190425021317 10 0.0 0.0 0.00 0.00 0.00 82 1010.9
20190425020316 11 0.0 0.0 0.00 0.00 0.00 82 1010.9
20190425015317 11 0.0 0.0 0.00 0.00 0.00 82 1010.7
20190425014317 11 0.0 0.0 0.00 0.00 0.00 81 1010.8
20190425013317 11 0.0 0.0 0.00 0.00 0.00 81 1010.8
20190425012317 11 0.0 0.0 0.00 0.00 0.00 80 1010.8
20190425011316 11 0.0 0.0 0.00 0.00 0.00 80 1010.7
20190425010316 11 0.0 0.0 0.00 0.00 0.00 79 1010.6
20190425005316 11 0.0 0.0 0.00 0.00 0.00 79 1010.7
20190425004317 11 0.0 0.0 0.00 0.00 0.00 79 1010.6
20190425003317 12 0.0 0.0 0.00 0.00 0.00 78 1010.4
20190425002316 12 0.0 0.0 0.00 0.00 0.00 78 1010.4
20190425001316 12 0.0 0.0 0.00 0.00 0.00 77 1010.4
20190425000316 12 0.0 0.0 0.00 0.00 0.00 76 1010.4
20190424235317 12 0.0 0.0 0.00 0.00 0.00 76 1010.5
20190424234316 12 0.0 0.0 0.00 0.00 0.00 75 1010.4
20190424233316 12 0.0 0.0 0.00 0.00 0.00 74 1010.4
20190424232316 13 0.0 0.0 0.00 0.00 0.00 74 1010.3
20190424231316 13 0.0 0.0 0.00 0.00 0.00 73 1010.3
20190424230316 13 0.0 0.0 0.00 0.00 0.00 72 1010.4
20190424225316 13 0.0 0.0 0.00 0.00 0.00 72 1010.4
20190424224316 13 0.0 0.0 0.00 0.00 0.00 71 1010.4
20190424223316 13 0.0 0.0 0.00 0.00 0.00 70 1010.2
20190424222316 13 0.0 0.0 0.00 0.00 0.00 70 1010.2
20190424221316 13 0.0 0.0 0.00 0.00 0.00 70 1009.9
20190424220316 14 0.0 0.0 0.00 0.00 0.00 68 1009.8
20190424215316 14 0.0 0.0 0.00 0.00 0.00 67 1009.8
20190424214316 15 0.0 0.0 0.00 0.00 0.00 65 1009.7
20190424213316 15 0.0 0.0 0.00 0.00 0.00 63 1009.6
20190424212316 16 0.0 0.0 0.00 0.00 0.00 61 1009.5
20190424211316 16 0.0 4.8 0.00 0.00 0.00 60 1009.5
20190424210316 16 0.0 0.0 0.00 0.00 0.00 59 1009.5
20190424205316 17 0.0 0.0 0.00 0.00 0.00 57 1009.5
20190424204316 17 0.0 0.0 0.00 0.00 0.00 57 1009.5
20190424203321 17 0.0 0.0 0.00 0.00 0.00 56 1009.5
20190424202316 17 245 0.0 8.0 0.00 0.00 0.00 56 1009.4
20190424201315 17 0.0 0.0 0.00 0.00 0.00 56 1009.5
20190424200316 17 0.0 1.6 0.00 0.00 0.00 56 1009.6
20190424195316 18 193 3.2 12.9 0.00 0.00 0.00 55 1009.5
20190424194316 18 0.0 0.0 0.00 0.00 0.00 54 1009.6
20190424193315 18 229 1.6 9.7 0.00 0.00 0.00 54 1009.5
20190424192316 18 226 4.8 14.5 0.00 0.00 0.00 53 1009.4
20190424191315 18 0.0 8.0 0.00 0.00 0.00 53 1009.2
20190424190315 18 0.0 0.0 0.00 0.00 0.00 52 1009.2
20190424185320 18 184 0.0 1.6 0.00 0.00 0.00 51 1009.1
20190424184315 19 0.0 6.4 0.00 0.00 0.00 50 1009.0
20190424183315 19 218 0.0 9.7 0.00 0.00 0.00 50 1008.9
20190424182315 19 0.0 0.0 0.00 0.00 0.00 50 1008.9
20190424181316 20 202 0.0 9.7 0.00 0.00 0.00 49 1008.8
20190424180315 20 185 0.0 1.6 0.00 0.00 0.00 49 1008.8
20190424175315 20 197 1.6 11.3 0.00 0.00 0.00 49 1008.8
20190424174315 20 240 0.0 8.0 0.00 0.00 0.00 49 1008.7
20190424173316 20 0.0 0.0 0.00 0.00 0.00 48 1008.8
20190424172315 21 216 3.2 14.5 0.00 0.00 0.00 47 1008.8
20190424171315 21 0.0 14.5 0.00 0.00 0.00 46 1008.7
20190424170315 21 127 1.6 14.5 0.00 0.00 0.00 45 1008.8
20190424165315 22 201 1.6 17.7 0.00 0.00 0.00 44 1008.6
20190424164315 22 0.0 6.4 0.00 0.00 0.00 43 1008.6
20190424163315 22 165 4.8 11.3 0.00 0.00 0.00 42 1008.8
20190424162315 22 238 4.8 16.1 0.00 0.00 0.00 42 1008.8
20190424161320 23 219 0.0 1.6 0.00 0.00 0.00 42 1008.8
20190424160315 23 219 0.0 9.7 0.00 0.00 0.00 42 1008.8
20190424155315 23 219 0.0 9.7 0.00 0.00 0.00 40 1008.7
20190424154315 24 0.0 12.9 0.00 0.00 0.00 40 1008.7
20190424153315 23 207 0.0 11.3 0.00 0.00 0.00 40 1008.7
20190424152315 24 201 12.9 24.1 0.00 0.00 0.00 41 1008.8
20190424151315 24 221 6.4 17.7 0.00 0.00 0.00 41 1008.7
20190424150317 24 53 0.0 20.9 0.00 0.00 0.00 41 1008.8
20190424145317 24 217 4.8 14.5 0.00 0.00 0.00 39 1008.7
20190424144317 24 203 1.6 11.3 0.00 0.00 0.00 42 1008.8
20190424143315 24 215 6.4 24.1 0.00 0.00 0.00 40 1008.9
20190424142317 25 187 6.4 17.7 0.00 0.00 0.00 39 1008.8
20190424141317 25 216 3.2 16.1 0.00 0.00 0.00 39 1008.7
20190424140317 25 212 6.4 20.9 0.00 0.00 0.00 39 1008.8
20190424135316 25 215 9.7 19.3 0.00 0.00 0.00 39 1008.8
20190424134317 25 230 6.4 19.3 0.00 0.00 0.00 39 1008.8
20190424133316 25 217 6.4 17.7 0.00 0.00 0.00 39 1008.7
20190424132316 25 193 8.0 17.7 0.00 0.00 0.00 39 1008.7
20190424131316 25 227 1.6 20.9 0.00 0.00 0.00 38 1008.7
20190424130316 25 210 8.0 20.9 0.00 0.00 0.00 37 1008.7
20190424125316 25 190 3.2 12.9 0.00 0.00 0.00 38 1008.7
20190424124316 25 191 1.6 8.0 0.00 0.00 0.00 38 1008.7
20190424123316 25 196 1.6 12.9 0.00 0.00 0.00 40 1008.8
20190424122316 24 199 0.0 4.8 0.00 0.00 0.00 40 1008.8
20190424121316 25 208 3.2 16.1 0.00 0.03 0.00 39 1008.9
20190424120316 25 226 0.0 24.1 0.00 0.05 0.00 40 1009.1
20190424115316 24 191 3.2 16.1 0.00 0.08 0.00 40 1009.1
20190424114316 24 204 8.0 17.7 0.00 0.08 0.00 40 1009.0
20190424113317 24 175 6.4 16.1 0.00 0.10 0.00 40 1008.9
20190424112316 24 70 1.6 12.9 0.00 0.10 0.00 40 1008.8
20190424111316 24 198 3.2 25.7 0.00 0.10 0.00 40 1009.1
20190424110316 23 131 1.6 11.3 0.00 0.10 0.00 42 1008.9
20190424105316 23 205 8.0 19.3 0.00 0.10 0.00 41 1009.2
20190424104316 23 176 0.0 25.7 0.00 0.10 0.00 42 1009.0
20190424103316 23 182 3.2 20.9 0.00 0.10 0.00 43 1009.0
20190424102316 22 214 4.8 14.5 0.00 0.10 0.00 42 1009.1
20190424101316 22 234 4.8 14.5 0.00 0.10 0.00 46 1009.0
20190424100316 21 356 0.0 14.5 0.00 0.10 0.00 53 1009.2
20190424095316 21 156 0.0 4.8 0.00 0.10 0.00 56 1009.3
20190424094316 21 242 0.0 6.4 0.00 0.10 0.00 57 1009.3
20190424093316 21 169 4.8 20.9 0.00 0.10 0.00 57 1009.4
20190424092316 21 46 1.6 14.5 0.00 0.10 0.00 58 1009.4
20190424091316 20 0.0 24.1 0.00 0.10 0.00 59 1009.3
20190424090316 20 122 1.6 16.1 0.00 0.10 0.00 59 1009.4
20190424085315 20 218 0.0 4.8 0.00 0.10 0.00 61 1009.4
20190424084316 19 141 1.6 14.5 0.00 0.10 0.00 62 1009.6
20190424083316 18 0.0 1.6 0.00 0.10 0.00 63 1009.4
20190424082316 18 0.0 1.6 0.00 0.10 0.00 66 1009.4
20190424081316 17 59 1.6 16.1 0.00 0.10 0.00 65 1009.6
20190424080315 17 57 4.8 17.7 0.00 0.10 0.00 67 1009.7
20190424075321 17 160 4.8 19.3 0.00 0.10 0.00 68 1009.6
20190424074315 16 60 0.0 6.4 0.00 0.10 0.00 71 1009.4
20190424073316 15 0.0 0.0 0.00 0.10 0.00 72 1009.6
20190424072315 15 88 0.0 17.7 0.00 0.10 0.00 74 1009.5
20190424071315 15 75 1.6 11.3 0.00 0.10 0.00 75 1009.4
20190424070315 14 140 6.4 16.1 0.00 0.10 0.00 76 1009.5
20190424065315 13 52 0.0 19.3 0.00 0.10 0.00 77 1009.2
20190424064315 13 122 6.4 16.1 0.00 0.10 0.00 78 1009.3
20190424063315 13 0.0 19.3 0.00 0.10 0.00 78 1009.2
20190424062315 13 0.0 0.0 0.00 0.10 0.00 80 1009.3
20190424061316 12 145 1.6 9.7 0.00 0.10 0.00 81 1009.2
20190424060315 12 0.0 11.3 0.00 0.10 0.00 82 1009.3
20190424055315 11 0.0 9.7 0.00 0.10 0.00 83 1009.3